Weather in Kolovo

Russia / Altai Krai     52°05′14″N   85°37′26″E
temp.,
°C
wind,
m/s
gust,
m/s
humid.,
%
clouds,
%
prec.,
mm/h
press.,
hPa
HPBL,
m
19 september, sun
sun1901:00+10nw118994 0.0 101212
04:00+8n118776 0.0 101352
07:00+5se118989 0.0 101310
10:00+11se1275100 0.0 1011358
13:00+15ene126081 0.0 1008851
16:00+18n434830 0.0 1006869
19:00+13ese1163100 0.0 100610
22:00+12wnw3556100 0.0 1007125
20 september, mon
mon2001:00+9wnw5961100 0.0 1010540
04:00+8w4960100 0.0 10111120
07:00+6w2863100 0.0 1015531
10:00+9w8115037 0.0 10171449
13:00+12w8103676 0.0 10162197
16:00+13w893092 0.0 10142326
19:00+10wnw483889 0.0 1015274
22:00+6s3348100 0.0 101656
21 september, tue
tue2101:00+5w3658100 0.0 1016186
04:00+2w3880100 0.0 1018484
07:00+3wsw4979100 0.1 1018845
10:00+5w71159100 0.1 10191426
13:00+8w8114198 0.1 10191902
16:00+8wnw7941100 0.0 10191907
19:00+5wnw48525 0.0 1021319
22:00+1ssw327243 0.0 102323
22 september, wed
wed2201:00+1ssw227185 0.0 102320
04:000ssw227666 0.0 102318
07:00−2ssw228729 0.0 102416
10:00+5wsw235426 0.0 1024814
13:00+7nw3445100 0.0 10231459
16:00+8nnw3343100 0.0 10221561
19:00+5nne1156100 0.0 102216
22:00+3wnw1163100 0.0 102210
23 september, thu
thu2301:00+1sw1172100 0.0 102210
04:00+2ssw2268100 0.0 102120
07:00+1wnw1171100 0.0 102218
10:00+4nw2360100 0.0 1022804
13:00+6wnw2361100 0.1 10221117
16:00+6wnw3460100 0.3 10221191
19:00+4wnw2471100 0.4 1024216
22:00+2ssw2296100 0.2 102483